Starlink 6278

operational
NORAD ID: 56412 Int'l Des: 2023-061 Owner: SPXS Country: US Constellation: starlink
LEOCIRCULAR

Über Starlink 6278

Beschreibung wird geladen...

Live-Position

3D-Globus wird geladen...

Nächste Überflüge

Höhenverlauf

Altitude vs Time

uPlot chart will show altitude changes over time

Zweizeiliger Elementsatz

1 56412U 23061AQ 25305.63104687 .00000057 00000-0 19308-4 0 9997
2 56412 43.0089 160.1004 0001066 241.0710 119.0025 15.02532145137641
Epoch: 1. Nov. 2025 • Age: 16 hours

Aktueller Status

Höhe 563.8 km
Geschwindigkeit 7.58 km/s
Subsatellitenpunkt -21.15°S, 14.03°W
Startdatum 4. Mai 2023
Alter 2.4 years
Typ internet

Technische Details

Klassifizierung Payload
Masse 305.00 kg
Trockenmasse 290.00 kg
Gesamtmasse 305.00 kg
Länge 0.20 m
Durchmesser 2.80 m
Spannweite 9.00 m
Form Box + pan
Hersteller SPXS
Bus-Typ Starlink
Phasenstatus In Orbit
Besitzer/Staat SPXS/US

Große Konstellationen

Loading constellations...